Location: Allos
(44.2333°N, 6.6333°E)
Time: 13:45:35
(UTC+00:00)

Daily predictions for brighter satellites

Satellite Brightness Start Highest point End
(mag) Time Altitude Azimuth Time Altitude Azimuth Time Altitude Azimuth
Meteor 1-21 4.4 19:54:45 10° S 20:00:29 65° E 20:06:15 10° NNE
Aureole 3 4.3 19:56:53 10° SSE 20:01:17 49° E 20:06:45 10° NNE
Cosmos 1300 2.5 19:57:57 10° N 20:01:31 87° E 20:05:04 10° S
BREEZE-M DEB (TANK) 4.4 19:57:39 10° WNW 20:01:52 74° SSW 20:15:44 10° ESE
Cosmos 2237 Rocket 4.1 19:58:52 10° N 20:02:40 18° NE 20:06:27 10° E
SL-14 R/B 3.3 20:00:05 10° S 20:03:52 82° W 20:07:42 10° N
CZ-4C R/B 3.5 20:00:59 10° NNE 20:05:04 57° E 20:08:59 10° S
Cosmos 2333 Rocket 2.7 20:00:03 10° NNW 20:05:44 62° WSW 20:11:24 10° S
ATLAS 2AS CENTAUR R/B 3.2 20:04:45 10° NW 20:11:21 55° WSW 20:17:43 10° SSE
SJ 16-02 1.9 20:13:37 10° SSW 20:17:53 61° WNW 20:22:11 10° NNE
Cosmos 2322 4.0 20:13:47 10° NNW 20:19:24 59° ENE 20:24:36 12° SE
Cosmos 2315 Rocket 4.2 20:13:07 10° N 20:19:31 82° W 20:25:53 10° S
Cosmos 2322 Rocket 3.7 20:15:12 10° NW 20:20:15 34° WSW 20:25:17 10° SSW
COSMOS 2455 3.2 20:15:43 10° S 20:21:20 43° ESE 20:26:59 10° NE
Spot 2 Rocket 4.0 20:18:30 11° SE 20:23:12 46° ENE 20:28:05 10° N
Meteor 1-16 Rocket 4.4 20:17:55 10° N 20:23:52 72° ENE 20:29:41 10° SSE
Cosmos 2297 Rocket 3.4 20:21:39 10° SSE 20:25:59 23° ESE 20:30:20 10° NE
Cosmos 1455 2.8 20:22:55 10° N 20:26:11 35° ENE 20:28:44 15° SE
Okean 2 3.6 20:22:56 10° S 20:26:49 50° E 20:30:44 10° NNE
Okean 1-7 3.2 20:23:07 10° S 20:27:18 54° E 20:31:31 10° NNE
IRS-1A Rocket 4.2 20:23:03 10° SSE 20:28:33 85° ENE 20:34:09 10° NNW
SeaSat 1 3.5 20:24:21 10° ESE 20:28:41 34° NE 20:33:05 10° N
SPOT 3 Rocket 4.0 20:27:20 13° SE 20:31:47 48° ENE 20:36:45 10° N
Okean 3 3.5 20:28:09 10° SSW 20:32:17 79° W 20:36:31 10° N
Cosmos 2219 Rocket 2.5 20:28:35 10° NNW 20:34:12 65° WSW 20:39:44 10° S
Cosmos 158 Rocket 4.5 20:30:44 10° N 20:35:49 48° ENE 20:39:46 15° SE
Okean-O 3.7 20:31:51 10° S 20:36:01 42° W 20:40:13 10° NNW
CENTAUR R/B 3.7 20:35:25 14° SE 20:37:35 17° ESE 20:41:24 10° ENE
Cosmos 1862 Rocket 4.3 20:35:19 10° SSW 20:39:38 54° WNW 20:44:01 10° N
Cosmos 1703 Rocket 3.9 20:35:56 12° SSE 20:39:53 47° E 20:44:09 10° NNE
Okean O Rocket 3.9 20:39:31 10° SW 20:42:44 20° W 20:45:56 10° NW
USA 245 3.8 20:40:34 13° SSE 20:44:23 88° W 20:49:43 10° NNW
Cosmos 371 Rocket 3.8 20:42:40 13° SSE 20:46:34 38° ESE 20:51:01 10° NE
Delta 2 Rocket 4.4 20:45:32 10° SW 20:47:39 17° S 20:47:39 17° S
Cosmos 2208 Rocket 4.1 20:42:44 10° NNW 20:47:53 63° ENE 20:51:41 18° SE
Ariane Rocket 3.0 20:44:24 15° SSE 20:48:37 73° ENE 20:53:43 10° N
Cosmos 1242 Rocket 1.6 20:47:11 17° S 20:49:08 75° E 20:51:50 10° NNE
CZ-4C R/B 1.7 20:45:09 10° SSW 20:49:26 67° ESE 20:54:47 10° NE
Meteor 1-4 Rocket 3.8 20:47:22 10° SW 20:50:07 33° WNW 20:52:54 10° N
Terra 1.8 20:49:49 14° S 20:53:51 81° WSW 20:58:36 10° NNW
Iridium 51 4.5 20:55:00 11° S 20:59:05 77° W 21:03:06 10° N
MOS 1 Rocket 3.6 20:54:47 15° SSE 20:59:15 85° WSW 21:04:23 10° NNW
Cosmos 1486 Rocket 4.0 20:54:36 10° S 20:59:40 59° ESE 21:04:48 10° NNE
Cosmos 2360 Rocket 4.4 21:00:19 10° WNW 21:04:09 19° W 21:08:00 10° SW
Cosmos 1953 2.5 21:02:59 10° NNW 21:06:46 61° W 21:09:25 18° S
USA 234 3.4 21:01:33 10° ENE 21:07:51 48° SE 21:14:06 10° SSW
COSMOS 2428 2.8 21:03:11 10° NNW 21:08:52 73° WSW 21:12:54 20° SSE
SPOT 5 4.4 21:05:50 10° SSW 21:09:35 28° W 21:13:29 10° NW
Cosmos 304 Rocket 3.8 21:09:38 17° S 21:13:06 57° ESE 21:17:46 10° NNE
Cosmos 405 Rocket 4.5 21:13:44 10° NNE 21:16:30 19° ENE 21:17:44 16° E
BREEZE-M DEB (TANK) 4.4 21:14:06 10° WNW 21:16:40 39° N 21:22:23 10° ENE
Cosmos 1354 Rocket 4.4 21:19:10 24° SSE 21:21:57 43° ESE 21:26:57 10° NNE
BlueWalker 3 4.4 21:19:31 10° WNW 21:22:33 23° N 21:25:36 10° NE
ERS-1 Rocket 4.2 21:21:23 11° SSW 21:25:46 35° W 21:30:23 10° NNW
SL-4 R/B 2.9 21:27:41 10° WNW 21:31:14 34° SW 21:32:20 28° S
Cosmos 2084 Rocket 3.9 21:29:08 10° SW 21:33:25 61° NW 21:37:32 10° NNE
Cosmos 1408 1.9 21:32:50 49° S 21:33:33 87° W 21:36:34 10° N
Cosmos 773 Rocket 3.9 21:31:12 10° NNW 21:36:24 84° ENE 21:39:00 30° SSE
Cosmos 2098 Rocket 4.5 21:30:37 10° N 21:36:43 44° ENE 21:39:36 26° SE
Cosmos 2242 Rocket 3.6 21:35:52 29° S 21:38:07 74° E 21:42:41 10° NNE
Cosmos 1782 Rocket 3.7 21:36:43 10° NNW 21:41:01 65° W 21:43:08 29° SSW
BREEZE-M DEB (TANK) 3.3 21:39:33 10° W 21:41:46 35° SSW 21:41:58 34° SSW
Cosmos 1709 Rocket 4.0 21:38:03 24° S 21:42:03 71° E 21:48:20 10° NNE
Cosmos 332 Rocket 4.1 21:41:28 33° SSE 21:43:14 48° ESE 21:47:56 10° NNE
Cosmos 1300 Rocket 3.6 21:40:21 10° NNW 21:44:40 72° W 21:46:34 32° S
SL-16 R/B 3.5 21:41:26 10° N 21:46:29 32° NE 21:50:00 17° ESE
Cosmos 2237 Rocket 2.1 21:41:49 10° NNW 21:47:31 88° WSW 21:50:16 32° SSE
NOSS 3-2 (A) 3.7 21:48:36 32° SE 21:49:41 35° ESE 21:54:54 10° NE
Cosmos 2227 Rocket 2.3 21:47:45 28° S 21:50:38 59° ESE 21:56:13 10° NNE
H-2A R/B 3.8 21:56:06 24° E 21:57:25 29° ENE 22:01:03 10° N
SL-12 R/B(2) 4.4 21:52:02 21° S 21:57:28 55° ESE 22:06:32 10° NE
Cosmos 1980 3.9 21:56:34 10° NNW 22:02:11 64° WSW 22:04:42 33° S
EXPRESS MD2 3.6 22:00:08 10° WNW 22:01:35 33° NW 22:01:35 33° NW
Meteor 2-5 Rocket 3.7 21:59:20 29° S 22:02:26 81° E 22:08:14 10° NNE
Cosmos 1378 Rocket 3.9 22:02:31 41° SE 22:03:25 47° E 22:07:39 10° NNE
GP-B 3.7 22:00:24 10° N 22:04:42 52° W 22:06:48 27° SSW
Cosmos 1777 Rocket 4.2 22:01:00 19° SSW 22:04:46 73° WNW 22:10:03 10° NNE
ARIANE 5 R/B 2.6 22:03:45 43° SE 22:05:01 67° ENE 22:09:23 10° N
SeaSat 1 3.4 22:04:02 26° SSW 22:06:03 37° WSW 22:10:37 10° NW
Cosmos 1825 3.1 22:06:41 30° E 22:06:41 30° E 22:09:25 10° NNE
COSMOS 2455 4.3 22:01:46 10° WSW 22:07:19 38° NW 22:12:55 10° NNE
Cosmos 1674 Rocket 4.0 22:07:23 40° ESE 22:08:05 44° E 22:12:11 10° NNE
Cosmos 2297 Rocket 2.8 22:04:05 10° SW 22:09:35 54° WNW 22:15:09 10° NNE
Cosmos 1174 4.1 22:06:01 10° NW 22:10:25 51° WSW 22:11:05 45° SSW
Cosmos 1703 3.6 22:10:39 38° SW 22:11:42 55° W 22:15:19 10° N
Cosmos 1538 Rocket 4.5 22:15:45 10° NNW 22:20:52 52° ENE 22:22:52 34° ESE
NOSS 8 (A) 4.4 22:18:05 10° NW 22:21:10 68° SW 22:21:10 68° SW
Cosmos 2219 3.2 22:23:58 40° S 22:25:48 61° ESE 22:31:20 10° NNE
Cosmos 1461 3.2 22:26:32 43° E 22:26:32 43° E 22:29:46 10° NE
CENTAUR R/B 2.4 22:22:27 17° SW 22:26:57 82° NW 22:33:56 10° NE
Cosmos 2263 Rocket 2.5 22:27:07 39° SE 22:28:19 45° ESE 22:33:35 10° NE
Cosmos 1818 4.3 22:24:43 10° NNW 22:30:02 48° NE 22:32:52 25° ESE
Cosmos 1892 2.3 22:31:14 79° E 22:31:14 79° E 22:34:43 10° N
Cosmos 2151 Rocket 3.4 22:28:32 10° N 22:32:57 89° SW 22:33:47 58° S
Meteor 1-24 Rocket 4.2 22:32:42 25° SW 22:35:55 54° WNW 22:41:19 10° N
Okean 2 Rocket 3.0 22:32:53 10° N 22:37:24 89° W 22:38:18 57° S
CZ-4C R/B 4.3 22:34:30 10° W 22:38:28 24° NNW 22:43:13 10° NNE
ALOS 2 2.7 22:46:36 52° ESE 22:47:24 63° ENE 22:51:46 10° N
Cosmos 1898 Rocket 3.7 22:48:08 45° SE 22:48:59 50° ESE 22:53:59 10° NNE
Cosmos 292 Rocket 3.7 22:49:43 56° SSE 22:50:34 70° ESE 22:55:23 10° NNE
USA 234 3.8 22:44:32 10° NE 22:50:56 59° NNW 22:57:20 10° WSW
Cosmos 405 Rocket 3.9 22:48:19 10° NNW 22:51:39 30° W 22:51:59 29° WSW
H-2A R/B 3.4 22:53:45 10° NE 22:57:02 25° E 22:57:02 25° E
USA 281 3.2 22:56:14 39° S 22:58:48 70° WSW 23:05:24 10° NNW
Cosmos 2074 Rocket 3.9 22:58:51 40° SSW 23:01:18 83° W 23:07:33 10° N
BlueWalker 3 4.4 22:58:37 10° NW 23:01:38 22° N 23:04:39 10° ENE
Aureole 1 Rocket 2.9 23:05:07 67° SW 23:05:40 84° WNW 23:10:41 10° NNE
Cosmos 2181 Rocket 4.4 23:01:01 10° NNW 23:06:54 50° W 23:09:14 34° SW
Cosmos 2221 Rocket 4.3 23:07:38 37° WSW 23:08:46 45° WNW 23:13:01 10° N
USA 238 DEB 4.1 23:08:11 34° SE 23:09:07 36° ESE 23:15:00 10° NE
USA 238 4.1 23:08:14 34° SE 23:09:10 35° ESE 23:15:02 10° NE
Cosmos 1328 3.8 23:09:17 66° W 23:09:27 68° W 23:13:20 10° N
Okean 1 Rocket 3.3 23:09:15 10° NNW 23:13:34 57° W 23:14:06 53° SW
Cosmos 1295 Rocket 4.5 23:12:40 40° SSW 23:14:59 75° W 23:21:10 10° N
Cosmos 1900 4.3 23:18:28 57° S 23:19:25 73° ESE 23:24:30 10° NE
Cosmos 1867 4.0 23:19:03 41° SE 23:19:35 42° ESE 23:24:43 10° NE
Meteor 1-21 Rocket 4.1 23:21:20 48° S 23:23:02 89° E 23:28:41 10° N
Elektron 3 4.3 23:18:48 10° NW 23:24:25 74° SW 23:24:28 73° SW
Cosmos 1025 Rocket 3.1 23:23:54 59° WSW 23:24:26 66° W 23:28:43 10° N
Cosmos 1680 Rocket 3.7 23:21:27 10° NNW 23:26:38 63° ENE 23:28:15 42° SE
Cosmos 372 Rocket 3.9 23:26:39 52° SSW 23:27:58 86° WNW 23:33:13 10° NNE
Cosmos 2237 Rocket 4.3 23:28:24 10° WNW 23:30:39 12° W 23:32:05 11° WSW
SL-16 R/B 2.7 23:25:21 10° NW 23:30:43 44° WSW 23:31:50 39° SW
Cosmos 2341 Rocket 4.4 23:28:46 37° SE 23:30:49 52° E 23:36:51 10° NNE
Cosmos 1975 Rocket 2.9 23:31:37 68° SE 23:32:01 74° E 23:36:27 10° NNE
H-2A R/B 3.9 23:32:04 26° WSW 23:32:18 26° W 23:35:51 10° NW
Cosmos 2112 Rocket 4.3 23:27:50 10° NNW 23:32:58 60° ENE 23:34:40 40° SE
Cosmos 2227 Rocket 4.1 23:30:28 10° WSW 23:35:04 25° NW 23:39:43 10° N
Cosmos 1606 3.5 23:32:21 10° N 23:35:43 38° ENE 23:35:43 38° ENE
Cosmos 1943 3.3 23:30:41 10° NNW 23:36:19 69° ENE 23:38:26 38° SE
Cosmos 2082 4.2 23:36:07 31° SW 23:38:40 55° WNW 23:44:12 10° NNE
NOSS 3-2 (A) 4.3 23:35:54 13° WSW 23:40:18 42° NW 23:46:12 10° NNE
Cosmos 1825 4.3 23:40:07 14° W 23:40:37 15° WNW 23:42:39 10° NW
Nadezhda 3 Rocket 4.2 23:35:20 10° NNW 23:41:26 59° W 23:43:26 40° SSW
Cosmos 1455 Rocket 3.0 23:37:19 10° NNW 23:41:45 69° W 23:42:10 64° SW
Meteor 2-1 Rocket 4.2 23:41:51 10° N 23:47:44 82° E 23:49:33 46° SSE
Cosmos 2366 rocket 4.3 23:45:43 39° SSE 23:47:53 58° E 23:53:57 10° NNE
NOSS 3-2 (C) 3.4 23:49:28 34° WSW 23:51:48 68° NW 23:57:59 10° NE
Cosmos 858 Rocket 4.4 23:50:30 51° SSW 23:51:50 80° WNW 23:57:05 10° NNE
Cosmos 2218 Rocket 4.2 23:51:32 40° SSE 23:53:41 61° E 23:59:44 10° NNE
Cosmos 2228 3.7 23:50:56 10° N 23:55:03 43° ENE 23:55:54 38° ESE
